Year,Month,Day,Hour,Minute,Value (Times are PST for temperature in C)
2016,08,19,08,18,19.80
2016,08,19,08,19,19.90
2016,08,19,08,20,20.00
2016,08,19,08,21,20.20
2016,08,19,08,22,20.30
2016,08,19,08,23,20.50
2016,08,19,08,24,20.60
2016,08,19,08,25,20.80
2016,08,19,08,26,20.90
2016,08,19,08,27,21.10
2016,08,19,08,28,21.20
2016,08,19,08,29,21.30
2016,08,19,08,30,21.40
2016,08,19,08,31,21.50
2016,08,19,08,32,21.60
2016,08,19,08,33,21.80
2016,08,19,08,34,21.90
2016,08,19,08,35,22.10
2016,08,19,08,36,22.20
2016,08,19,08,37,22.30
2016,08,19,08,38,22.50
2016,08,19,08,39,22.60
2016,08,19,08,40,22.70
2016,08,19,08,41,22.80
2016,08,19,08,42,22.90
2016,08,19,08,43,23.00
2016,08,19,08,44,23.10
2016,08,19,08,45,23.20
2016,08,19,08,46,23.20
2016,08,19,08,47,23.30
2016,08,19,08,48,23.40
2016,08,19,08,49,23.50
2016,08,19,08,50,23.60
2016,08,19,08,51,23.70
2016,08,19,08,52,23.70
2016,08,19,08,53,23.80
2016,08,19,08,54,23.80
2016,08,19,08,55,23.80
2016,08,19,08,56,23.80
2016,08,19,08,57,23.80
2016,08,19,08,58,23.90
2016,08,19,08,59,23.90
2016,08,19,09,00,24.00
2016,08,19,09,01,24.10
2016,08,19,09,02,24.10
2016,08,19,09,03,24.20
2016,08,19,09,04,24.30
2016,08,19,09,05,24.40
2016,08,19,09,06,24.40
2016,08,19,09,07,24.50
2016,08,19,09,08,24.50
2016,08,19,09,09,24.60
2016,08,19,09,10,24.60
2016,08,19,09,11,24.60
2016,08,19,09,12,24.60
2016,08,19,09,13,24.70
2016,08,19,09,14,24.70
2016,08,19,09,15,24.80
2016,08,19,09,16,24.80
2016,08,19,09,17,24.90
2016,08,19,09,18,24.90
2016,08,19,09,19,25.00
2016,08,19,09,20,25.00
2016,08,19,09,21,25.10
2016,08,19,09,22,25.10
2016,08,19,09,23,25.20
2016,08,19,09,24,25.20
2016,08,19,09,25,25.10
2016,08,19,09,26,25.10
2016,08,19,09,27,25.10
2016,08,19,09,28,25.10
2016,08,19,09,29,25.20
2016,08,19,09,30,25.20
2016,08,19,09,31,25.20
2016,08,19,09,32,25.20
2016,08,19,09,33,25.20
2016,08,19,09,34,25.20
2016,08,19,09,35,25.20
2016,08,19,09,36,25.20
2016,08,19,09,37,25.30
2016,08,19,09,38,25.30
2016,08,19,09,39,25.30
2016,08,19,09,40,25.30
2016,08,19,09,41,25.30
2016,08,19,09,42,25.30
2016,08,19,09,43,25.30
2016,08,19,09,44,25.30
2016,08,19,09,45,25.30
2016,08,19,09,46,25.30
2016,08,19,09,47,25.30
2016,08,19,09,48,25.20
2016,08,19,09,49,25.20
2016,08,19,09,50,25.20
2016,08,19,09,51,25.20
2016,08,19,09,52,25.20
2016,08,19,09,53,25.20
2016,08,19,09,54,25.20
2016,08,19,09,55,25.10
2016,08,19,09,56,25.10
2016,08,19,09,57,25.10
2016,08,19,09,58,25.10
2016,08,19,09,59,25.10
2016,08,19,10,00,25.10
2016,08,19,10,01,25.10
2016,08,19,10,02,25.10
2016,08,19,10,03,25.10
2016,08,19,10,04,25.20
2016,08,19,10,05,25.20
2016,08,19,10,06,25.20
2016,08,19,10,07,25.30
2016,08,19,10,08,25.30
2016,08,19,10,09,25.30
2016,08,19,10,10,25.30
2016,08,19,10,11,25.30
2016,08,19,10,12,25.30
2016,08,19,10,13,25.30
2016,08,19,10,14,25.30
2016,08,19,10,15,25.30
2016,08,19,10,16,25.30
2016,08,19,10,17,25.30
2016,08,19,10,18,25.40
2016,08,19,10,19,25.40
2016,08,19,10,20,25.40
2016,08,19,10,21,25.50
2016,08,19,10,22,25.50
2016,08,19,10,23,25.60
2016,08,19,10,24,25.60
2016,08,19,10,25,25.70
2016,08,19,10,26,25.70
2016,08,19,10,27,25.70
2016,08,19,10,28,25.70
2016,08,19,10,29,25.60
2016,08,19,10,30,25.60
2016,08,19,10,31,25.50
2016,08,19,10,32,25.50
2016,08,19,10,33,25.40
2016,08,19,10,34,25.40
2016,08,19,10,35,25.40
2016,08,19,10,36,25.30
2016,08,19,10,37,25.20
2016,08,19,10,38,25.20
2016,08,19,10,39,25.20
2016,08,19,10,40,25.20
2016,08,19,10,41,25.10
2016,08,19,10,42,25.10
2016,08,19,10,43,25.10
2016,08,19,10,44,25.10
2016,08,19,10,45,25.10
2016,08,19,10,46,25.10
2016,08,19,10,47,25.10
2016,08,19,10,48,25.10
2016,08,19,10,49,25.10
2016,08,19,10,50,25.10
2016,08,19,10,51,25.20
2016,08,19,10,52,25.20
2016,08,19,10,53,25.20
2016,08,19,10,54,25.20
2016,08,19,10,55,25.20
2016,08,19,10,56,25.20
2016,08,19,10,57,25.20
2016,08,19,10,58,25.30
2016,08,19,10,59,25.30
2016,08,19,11,00,25.30
2016,08,19,11,01,25.40
2016,08,19,11,02,25.40
2016,08,19,11,03,25.40
2016,08,19,11,04,25.50
2016,08,19,11,05,25.50
2016,08,19,11,06,25.60
2016,08,19,11,07,25.60
2016,08,19,11,08,25.60
2016,08,19,11,09,25.70
2016,08,19,11,10,25.70
2016,08,19,11,11,25.70
2016,08,19,11,12,25.70
2016,08,19,11,13,25.80
2016,08,19,11,14,25.80
2016,08,19,11,15,25.80
2016,08,19,11,16,25.90
2016,08,19,11,17,25.90
2016,08,19,11,18,25.90
2016,08,19,11,19,26.00
2016,08,19,11,20,26.10
2016,08,19,11,21,26.10
2016,08,19,11,22,26.20
2016,08,19,11,23,26.20
2016,08,19,11,24,26.20
2016,08,19,11,25,26.20
2016,08,19,11,26,26.20
2016,08,19,11,27,26.20
2016,08,19,11,28,26.20
2016,08,19,11,29,26.10
2016,08,19,11,30,26.10
2016,08,19,11,31,26.00
2016,08,19,11,32,26.00
2016,08,19,11,33,26.00
2016,08,19,11,34,26.00
2016,08,19,11,35,26.00
2016,08,19,11,36,26.10
2016,08,19,11,37,26.10
2016,08,19,11,38,26.10
2016,08,19,11,39,26.10
2016,08,19,11,40,26.10
2016,08,19,11,41,26.20
2016,08,19,11,42,26.20
2016,08,19,11,43,26.20
2016,08,19,11,44,26.20
2016,08,19,11,45,26.20
2016,08,19,11,46,26.10
2016,08,19,11,47,25.90
2016,08,19,11,48,25.80
2016,08,19,11,49,25.80
2016,08,19,11,50,25.70
2016,08,19,11,51,25.80
2016,08,19,11,52,25.80
2016,08,19,11,53,25.90
2016,08,19,11,54,25.90
2016,08,19,11,55,26.00
2016,08,19,11,56,26.10
2016,08,19,11,57,26.20
2016,08,19,11,58,26.30
2016,08,19,11,59,26.30
2016,08,19,12,00,26.40
2016,08,19,12,01,26.40
2016,08,19,12,02,26.40
2016,08,19,12,03,26.40
2016,08,19,12,04,26.40
2016,08,19,12,05,26.40
2016,08,19,12,06,26.40
2016,08,19,12,07,26.50
2016,08,19,12,08,26.60
2016,08,19,12,09,26.70
2016,08,19,12,10,26.70
2016,08,19,12,11,26.80
2016,08,19,12,12,26.90
2016,08,19,12,13,27.00
2016,08,19,12,14,27.10
2016,08,19,12,15,27.10
2016,08,19,12,16,27.20
2016,08,19,12,17,27.20
2016,08,19,12,18,27.30
2016,08,19,12,19,27.30
2016,08,19,12,20,27.40
2016,08,19,12,21,27.40
2016,08,19,12,22,27.40
2016,08,19,12,23,27.30
2016,08,19,12,24,27.30
2016,08,19,12,25,27.20
2016,08,19,12,26,27.10
2016,08,19,12,27,27.00
2016,08,19,12,28,27.00
2016,08,19,12,29,26.90
2016,08,19,12,30,26.90
2016,08,19,12,31,26.80
2016,08,19,12,32,26.80
2016,08,19,12,33,26.80
2016,08,19,12,34,26.80
2016,08,19,12,35,26.90
2016,08,19,12,36,26.90
2016,08,19,12,37,26.90
2016,08,19,12,38,26.90
2016,08,19,12,39,26.90
2016,08,19,12,40,26.90
2016,08,19,12,41,26.90
2016,08,19,12,42,26.90
2016,08,19,12,43,26.90
2016,08,19,12,44,27.00
2016,08,19,12,45,27.00
2016,08,19,12,46,27.00
2016,08,19,12,47,26.90
2016,08,19,12,48,26.90
2016,08,19,12,49,26.90
2016,08,19,12,50,26.80
2016,08,19,12,51,26.70
2016,08,19,12,52,26.70
2016,08,19,12,53,26.70
2016,08,19,12,54,26.70
2016,08,19,12,55,26.70
2016,08,19,12,56,26.70
2016,08,19,12,57,26.70
2016,08,19,12,58,26.80
2016,08,19,12,59,26.80
2016,08,19,13,00,26.90
2016,08,19,13,01,27.00
2016,08,19,13,02,27.10
2016,08,19,13,03,27.10
2016,08,19,13,04,27.20
2016,08,19,13,05,27.10
2016,08,19,13,06,27.10
2016,08,19,13,07,27.00
2016,08,19,13,08,26.90
2016,08,19,13,09,26.80
2016,08,19,13,10,26.70
2016,08,19,13,11,26.50
2016,08,19,13,12,26.50
2016,08,19,13,13,26.30
2016,08,19,13,14,26.20
2016,08,19,13,15,26.10
2016,08,19,13,16,26.00
2016,08,19,13,17,25.90
2016,08,19,13,18,25.80
2016,08,19,13,19,25.60
2016,08,19,13,20,25.40
2016,08,19,13,21,25.20
2016,08,19,13,22,24.90
2016,08,19,13,23,24.80
2016,08,19,13,24,24.80
2016,08,19,13,25,24.70
2016,08,19,13,26,24.80
2016,08,19,13,27,24.80
2016,08,19,13,28,24.80
2016,08,19,13,29,24.90
2016,08,19,13,30,24.90
2016,08,19,13,31,24.90
2016,08,19,13,32,24.90
2016,08,19,13,33,24.80
2016,08,19,13,34,24.80
2016,08,19,13,35,24.80
2016,08,19,13,36,24.90
2016,08,19,13,37,24.90
2016,08,19,13,38,25.00
2016,08,19,13,39,25.00
2016,08,19,13,40,25.10
2016,08,19,13,41,25.20
2016,08,19,13,42,25.30
2016,08,19,13,43,25.30
2016,08,19,13,44,25.40
2016,08,19,13,45,25.60
2016,08,19,13,46,25.70
2016,08,19,13,47,25.90
2016,08,19,13,48,26.00
2016,08,19,13,49,26.10
2016,08,19,13,50,26.20
2016,08,19,13,51,26.30
2016,08,19,13,52,26.40
2016,08,19,13,53,26.50
2016,08,19,13,54,26.60
2016,08,19,13,55,26.60
2016,08,19,13,56,26.70
2016,08,19,13,57,26.70
2016,08,19,13,58,26.70
2016,08,19,13,59,26.80
2016,08,19,14,00,26.80
2016,08,19,14,01,26.80
2016,08,19,14,02,26.80
2016,08,19,14,03,26.80
2016,08,19,14,04,26.80
2016,08,19,14,05,26.70
2016,08,19,14,06,26.50
2016,08,19,14,07,26.40
2016,08,19,14,08,26.30
2016,08,19,14,09,26.20
2016,08,19,14,10,26.10
2016,08,19,14,11,26.10
2016,08,19,14,12,26.00
2016,08,19,14,13,25.90
2016,08,19,14,14,25.90
2016,08,19,14,15,25.90
2016,08,19,14,16,25.90
2016,08,19,14,17,25.90
2016,08,19,14,18,25.90
2016,08,19,14,19,25.90
2016,08,19,14,20,25.90
2016,08,19,14,21,25.90
2016,08,19,14,22,26.00
2016,08,19,14,23,26.00
2016,08,19,14,24,26.10
2016,08,19,14,25,26.10
2016,08,19,14,26,26.20
2016,08,19,14,27,26.10
2016,08,19,14,28,26.10
2016,08,19,14,29,26.10
2016,08,19,14,30,26.00
2016,08,19,14,31,26.00
2016,08,19,14,32,26.00
2016,08,19,14,33,26.00
2016,08,19,14,34,26.00
2016,08,19,14,35,25.90
2016,08,19,14,36,25.90
2016,08,19,14,37,25.90
2016,08,19,14,38,26.00
2016,08,19,14,39,26.00
2016,08,19,14,40,26.10
2016,08,19,14,41,26.20
2016,08,19,14,42,26.20
2016,08,19,14,43,26.30
2016,08,19,14,44,26.40
2016,08,19,14,45,26.50
2016,08,19,14,46,26.60
2016,08,19,14,47,26.70
2016,08,19,14,48,26.80
2016,08,19,14,49,26.80
2016,08,19,14,50,26.90
2016,08,19,14,51,27.00
2016,08,19,14,52,27.10
2016,08,19,14,53,27.20
2016,08,19,14,54,27.20
2016,08,19,14,55,27.30
2016,08,19,14,56,27.40
2016,08,19,14,57,27.40
2016,08,19,14,58,27.40
2016,08,19,14,59,27.40
2016,08,19,15,00,27.40
2016,08,19,15,01,27.30
2016,08,19,15,02,27.30
2016,08,19,15,03,27.20
2016,08,19,15,04,27.20
2016,08,19,15,05,27.20
2016,08,19,15,06,27.20
2016,08,19,15,07,27.20
2016,08,19,15,08,27.10
2016,08,19,15,09,27.10
2016,08,19,15,10,27.10
2016,08,19,15,11,27.10
2016,08,19,15,12,27.20
2016,08,19,15,13,27.20
2016,08,19,15,14,27.20
2016,08,19,15,15,27.20
2016,08,19,15,16,27.20
2016,08,19,15,17,27.20
2016,08,19,15,18,27.20
2016,08,19,15,19,27.20
2016,08,19,15,20,27.20
2016,08,19,15,21,27.30
2016,08,19,15,22,27.40
2016,08,19,15,23,27.50
2016,08,19,15,24,27.50
2016,08,19,15,25,27.60
2016,08,19,15,26,27.60
2016,08,19,15,27,27.60
2016,08,19,15,28,27.60
2016,08,19,15,29,27.60
2016,08,19,15,30,27.60
2016,08,19,15,31,27.60
2016,08,19,15,32,27.60
2016,08,19,15,33,27.60
2016,08,19,15,34,27.60
2016,08,19,15,35,27.60
2016,08,19,15,36,27.60
2016,08,19,15,37,27.60
2016,08,19,15,38,27.60
2016,08,19,15,39,27.60
2016,08,19,15,40,27.60
2016,08,19,15,41,27.60
2016,08,19,15,42,27.60
2016,08,19,15,43,27.70
2016,08,19,15,44,27.70
2016,08,19,15,45,27.80
2016,08,19,15,46,27.80
2016,08,19,15,47,27.90
2016,08,19,15,48,27.90
2016,08,19,15,49,27.90
2016,08,19,15,50,27.80
2016,08,19,15,51,27.80
2016,08,19,15,52,27.80
2016,08,19,15,53,27.80
2016,08,19,15,54,27.80
2016,08,19,15,55,27.80
2016,08,19,15,56,27.70
2016,08,19,15,57,27.70
2016,08,19,15,58,27.70
2016,08,19,15,59,27.80
2016,08,19,16,00,27.80
2016,08,19,16,01,27.90
2016,08,19,16,02,27.90
2016,08,19,16,03,27.90
2016,08,19,16,04,28.00
2016,08,19,16,05,28.00
2016,08,19,16,06,28.00
2016,08,19,16,07,28.10
2016,08,19,16,08,28.10
2016,08,19,16,09,28.10
2016,08,19,16,10,28.10
2016,08,19,16,11,28.20
2016,08,19,16,12,28.20
2016,08,19,16,13,28.30
2016,08,19,16,14,28.30
2016,08,19,16,15,28.20
2016,08,19,16,16,28.20
2016,08,19,16,17,28.20
2016,08,19,16,18,28.10
2016,08,19,16,19,28.10
2016,08,19,16,20,28.10
2016,08,19,16,21,28.10
2016,08,19,16,22,28.10
2016,08,19,16,23,28.00
2016,08,19,16,24,27.90
2016,08,19,16,25,27.90
2016,08,19,16,26,27.90
2016,08,19,16,27,28.00
2016,08,19,16,28,28.00
2016,08,19,16,29,27.90
2016,08,19,16,30,27.90
2016,08,19,16,31,27.90
2016,08,19,16,32,27.90
2016,08,19,16,33,27.90
2016,08,19,16,34,27.90
2016,08,19,16,35,28.00
2016,08,19,16,36,28.10
2016,08,19,16,37,28.10
2016,08,19,16,38,28.20
2016,08,19,16,39,28.20
2016,08,19,16,40,28.30
2016,08,19,16,41,28.30
2016,08,19,16,42,28.30
2016,08,19,16,43,28.40
2016,08,19,16,44,28.40
2016,08,19,16,45,28.50
2016,08,19,16,46,28.60
2016,08,19,16,47,28.60
2016,08,19,16,48,28.60
2016,08,19,16,49,28.70
2016,08,19,16,50,28.70
2016,08,19,16,51,28.80
2016,08,19,16,52,28.80
2016,08,19,16,53,28.80
2016,08,19,16,54,28.80
2016,08,19,16,55,28.80
2016,08,19,16,56,28.80
2016,08,19,16,57,28.90
2016,08,19,16,58,28.90
2016,08,19,16,59,28.90
2016,08,19,17,00,29.00
2016,08,19,17,01,29.10
2016,08,19,17,02,29.10
2016,08,19,17,03,29.20
2016,08,19,17,04,29.20
2016,08,19,17,05,29.20
2016,08,19,17,06,29.30
2016,08,19,17,07,29.30
2016,08,19,17,08,29.30
2016,08,19,17,09,29.30
2016,08,19,17,10,29.30
2016,08,19,17,11,29.30
2016,08,19,17,12,29.30
2016,08,19,17,13,29.30
2016,08,19,17,14,29.30
2016,08,19,17,15,29.20
2016,08,19,17,16,29.20
2016,08,19,17,17,29.20
2016,08,19,17,18,29.20
2016,08,19,17,19,29.20
2016,08,19,17,20,29.10
2016,08,19,17,21,29.10
2016,08,19,17,22,29.10
2016,08,19,17,23,29.10
2016,08,19,17,24,29.10
2016,08,19,17,25,29.10
2016,08,19,17,26,29.10
2016,08,19,17,27,29.10
2016,08,19,17,28,29.00
2016,08,19,17,29,28.90
2016,08,19,17,30,28.90
2016,08,19,17,31,28.80
2016,08,19,17,32,28.80
2016,08,19,17,33,28.70
2016,08,19,17,34,28.70
2016,08,19,17,35,28.60
2016,08,19,17,36,28.60
2016,08,19,17,37,28.60
2016,08,19,17,38,28.50
2016,08,19,17,39,28.50
2016,08,19,17,40,28.40
2016,08,19,17,41,28.40
2016,08,19,17,42,28.40
2016,08,19,17,43,28.40
2016,08,19,17,44,28.40
2016,08,19,17,45,28.50
2016,08,19,17,46,28.60
2016,08,19,17,47,28.60
2016,08,19,17,48,28.70
2016,08,19,17,49,28.70
2016,08,19,17,50,28.80
2016,08,19,17,51,28.80
2016,08,19,17,52,28.80
2016,08,19,17,53,28.80
2016,08,19,17,54,28.80
2016,08,19,17,55,28.80
2016,08,19,17,56,28.80
2016,08,19,17,57,28.70
2016,08,19,17,58,28.60
2016,08,19,17,59,28.60
2016,08,19,18,00,28.60
2016,08,19,18,01,28.50
2016,08,19,18,02,28.50
2016,08,19,18,03,28.40
2016,08,19,18,04,28.40
2016,08,19,18,05,28.40
2016,08,19,18,06,28.30
2016,08,19,18,07,28.30
2016,08,19,18,08,28.20
2016,08,19,18,09,28.10
2016,08,19,18,10,28.00
2016,08,19,18,11,27.90
2016,08,19,18,12,27.80
2016,08,19,18,13,27.70
2016,08,19,18,14,27.60
2016,08,19,18,15,27.50
2016,08,19,18,16,27.40
2016,08,19,18,17,27.40
2016,08,19,18,18,27.40
2016,08,19,18,19,27.30
2016,08,19,18,20,27.30
2016,08,19,18,21,27.20
2016,08,19,18,22,27.10
2016,08,19,18,23,27.00
2016,08,19,18,24,27.00
2016,08,19,18,25,26.90
2016,08,19,18,26,26.80
2016,08,19,18,27,26.70
2016,08,19,18,28,26.60
2016,08,19,18,29,26.50
2016,08,19,18,30,26.40
2016,08,19,18,31,26.30
2016,08,19,18,32,26.20
2016,08,19,18,33,26.20
2016,08,19,18,34,26.20
2016,08,19,18,35,26.20
2016,08,19,18,36,26.20
2016,08,19,18,37,26.20
2016,08,19,18,38,26.20
2016,08,19,18,39,26.20
2016,08,19,18,40,26.20
2016,08,19,18,41,26.20
2016,08,19,18,42,26.20
2016,08,19,18,43,26.20
